Location: Unspecified
(45.7810°N, 0.0000°E)
Time: 22:33:08
(UTC+00:00)

ISS - Pass Details

Date: 31 July 2019
Orbit: 410 x 421 km, 51.6° (Epoch: 22 August)

Event Time Altitude Azimuth Distance (km) Brightness Sun altitude
Rises 21:24:47 0° 296° (WNW) 2,373 1.3 -16.3°
Reaches altitude 10° 21:26:54 10° 293° (WNW) 1,505 0.0 -16.6°
Maximum altitude 21:30:14 58° 214° (SSW) 493 -3.6 -16.9°
Enters shadow 21:30:52 47° 166° (SSE) 564 -3.6 -17.0°
